TimeCST,TemperatureF,Dew PointF,Humidity,Sea Level PressureIn,VisibilityMPH,Wind Direction,Wind SpeedMPH,Gust SpeedMPH,PrecipitationIn,Events,Conditions,WindDirDegrees,DateUTC
12:15 AM,36.9,33.6,88,30.42,10.0,Calm,Calm,-,N/A,,Clear,0,2012-11-18 06:15:00
12:35 AM,37.6,33.8,86,30.42,10.0,Calm,Calm,-,N/A,,Clear,0,2012-11-18 06:35:00
12:55 AM,34.3,33.1,95,30.42,10.0,NNW,4.6,-,N/A,,Clear,340,2012-11-18 06:55:00
1:15 AM,34.7,33.3,94,30.42,10.0,Calm,Calm,-,N/A,,Clear,0,2012-11-18 07:15:00
1:35 AM,32.9,31.8,96,30.42,10.0,Calm,Calm,-,N/A,,Clear,0,2012-11-18 07:35:00
1:55 AM,34.0,32.7,95,30.42,7.0,Calm,Calm,-,N/A,,Clear,0,2012-11-18 07:55:00
2:15 AM,33.4,32.0,94,30.42,7.0,Calm,Calm,-,N/A,,Clear,0,2012-11-18 08:15:00
2:35 AM,32.0,30.7,95,30.41,7.0,Calm,Calm,-,N/A,,Clear,0,2012-11-18 08:35:00
2:55 AM,33.1,32.5,98,30.40,7.0,Calm,Calm,-,N/A,,Clear,0,2012-11-18 08:55:00
3:15 AM,33.6,32.9,97,30.40,7.0,Calm,Calm,-,N/A,,Clear,0,2012-11-18 09:15:00
3:35 AM,33.3,32.7,98,30.41,7.0,North,3.5,-,N/A,,Clear,350,2012-11-18 09:35:00
3:55 AM,32.4,32.0,99,30.41,7.0,Calm,Calm,-,N/A,,Clear,0,2012-11-18 09:55:00
4:15 AM,31.8,31.6,99,30.41,5.0,Calm,Calm,-,N/A,,Clear,0,2012-11-18 10:15:00
4:35 AM,32.5,32.4,99,30.42,7.0,Calm,Calm,-,N/A,,Clear,0,2012-11-18 10:35:00
4:55 AM,31.1,30.6,98,30.42,7.0,Calm,Calm,-,N/A,,Clear,0,2012-11-18 10:55:00
5:15 AM,30.4,30.0,99,30.42,7.0,Calm,Calm,-,N/A,,Clear,0,2012-11-18 11:15:00
5:35 AM,30.4,30.0,99,30.41,7.0,Calm,Calm,-,N/A,,Clear,0,2012-11-18 11:35:00
5:55 AM,30.2,29.8,99,30.41,7.0,Calm,Calm,-,N/A,,Clear,0,2012-11-18 11:55:00
6:15 AM,32.2,32.0,99,30.41,7.0,Calm,Calm,-,N/A,,Clear,0,2012-11-18 12:15:00
6:35 AM,31.8,31.6,99,30.42,5.0,Calm,Calm,-,N/A,,Clear,0,2012-11-18 12:35:00
6:55 AM,32.0,31.8,99,30.42,5.0,Calm,Calm,-,N/A,,Clear,0,2012-11-18 12:55:00
7:15 AM,32.5,32.0,98,30.42,7.0,Calm,Calm,-,N/A,,Clear,0,2012-11-18 13:15:00
7:35 AM,32.9,32.0,96,30.42,5.0,Calm,Calm,-,N/A,,Clear,0,2012-11-18 13:35:00
7:55 AM,35.4,34.2,95,30.43,7.0,Calm,Calm,-,N/A,,Clear,0,2012-11-18 13:55:00
8:15 AM,37.6,34.3,88,30.42,7.0,Calm,Calm,-,N/A,,Clear,0,2012-11-18 14:15:00
8:35 AM,41.4,35.1,78,30.42,10.0,ESE,3.5,-,N/A,,Clear,110,2012-11-18 14:35:00
8:55 AM,43.2,36.7,78,30.42,10.0,Calm,Calm,-,N/A,,Clear,0,2012-11-18 14:55:00
9:15 AM,46.2,36.9,70,30.42,10.0,ESE,3.5,-,N/A,,Clear,120,2012-11-18 15:15:00
9:35 AM,48.6,37.9,67,30.43,10.0,ESE,3.5,-,N/A,,Clear,110,2012-11-18 15:35:00
9:55 AM,49.6,37.2,62,30.42,10.0,SSE,3.5,-,N/A,,Clear,150,2012-11-18 15:55:00
10:15 AM,51.3,37.9,60,30.42,10.0,SSE,3.5,-,N/A,,Clear,160,2012-11-18 16:15:00
10:35 AM,53.1,38.5,58,30.42,10.0,SSE,3.5,-,N/A,,Clear,150,2012-11-18 16:35:00
10:55 AM,54.3,38.3,55,30.42,10.0,Calm,Calm,-,N/A,,Clear,0,2012-11-18 16:55:00
11:15 AM,55.2,37.8,52,30.40,10.0,South,4.6,-,N/A,,Clear,180,2012-11-18 17:15:00
11:35 AM,56.3,37.9,50,30.40,10.0,Calm,Calm,-,N/A,,Clear,0,2012-11-18 17:35:00
11:55 AM,57.2,37.2,47,30.39,10.0,South,3.5,-,N/A,,Clear,170,2012-11-18 17:55:00
12:15 PM,58.1,36.5,44,30.38,10.0,SSE,3.5,-,N/A,,Clear,150,2012-11-18 18:15:00
12:35 PM,59.0,36.9,44,30.37,10.0,Calm,Calm,-,N/A,,Clear,0,2012-11-18 18:35:00
12:55 PM,59.4,36.7,43,30.37,10.0,West,3.5,-,N/A,,Clear,260,2012-11-18 18:55:00
1:15 PM,59.9,36.5,42,30.36,10.0,South,4.6,-,N/A,,Clear,180,2012-11-18 19:15:00
1:35 PM,60.8,36.1,40,30.36,10.0,SSE,5.8,-,N/A,,Clear,160,2012-11-18 19:35:00
1:55 PM,60.4,36.7,41,30.35,10.0,South,4.6,-,N/A,,Clear,170,2012-11-18 19:55:00
2:15 PM,60.8,37.2,42,30.35,10.0,South,5.8,-,N/A,,Clear,190,2012-11-18 20:15:00
2:35 PM,60.8,37.4,42,30.35,10.0,South,4.6,-,N/A,,Clear,180,2012-11-18 20:35:00
2:55 PM,60.8,37.2,42,30.35,10.0,South,4.6,-,N/A,,Clear,180,2012-11-18 20:55:00
3:15 PM,60.3,37.4,43,30.35,10.0,South,3.5,-,N/A,,Clear,170,2012-11-18 21:15:00
3:35 PM,59.5,38.7,46,30.34,10.0,South,4.6,-,N/A,,Clear,170,2012-11-18 21:35:00
3:55 PM,58.1,39.0,49,30.34,10.0,SSE,4.6,-,N/A,,Clear,160,2012-11-18 21:55:00
4:15 PM,56.1,40.3,55,30.34,10.0,SSE,4.6,-,N/A,,Clear,160,2012-11-18 22:15:00
4:35 PM,51.3,39.2,63,30.34,10.0,Calm,Calm,-,N/A,,Clear,0,2012-11-18 22:35:00
4:55 PM,50.2,39.4,66,30.35,10.0,Calm,Calm,-,N/A,,Clear,0,2012-11-18 22:55:00
5:15 PM,49.1,39.2,69,30.35,10.0,ESE,3.5,-,N/A,,Clear,110,2012-11-18 23:15:00
5:35 PM,46.8,37.0,69,30.34,10.0,SE,3.5,-,N/A,,Clear,130,2012-11-18 23:35:00
5:55 PM,42.8,36.3,78,30.35,10.0,ESE,3.5,-,N/A,,Clear,110,2012-11-18 23:55:00
6:15 PM,43.3,36.7,77,30.35,10.0,Calm,Calm,-,N/A,,Clear,0,2012-11-19 00:15:00
6:35 PM,45.0,37.4,75,30.36,10.0,Calm,Calm,-,N/A,,Clear,0,2012-11-19 00:35:00
6:55 PM,45.9,37.4,72,30.36,10.0,Calm,Calm,-,N/A,,Clear,0,2012-11-19 00:55:00
7:15 PM,41.2,35.6,81,30.35,10.0,Calm,Calm,-,N/A,,Clear,0,2012-11-19 01:15:00
7:35 PM,43.7,37.2,78,30.36,10.0,Calm,Calm,-,N/A,,Clear,0,2012-11-19 01:35:00
7:55 PM,42.8,37.4,81,30.36,10.0,Calm,Calm,-,N/A,,Clear,0,2012-11-19 01:55:00
8:15 PM,42.4,37.4,82,30.36,10.0,Calm,Calm,-,N/A,,Clear,0,2012-11-19 02:15:00
8:35 PM,41.0,35.8,82,30.36,10.0,Calm,Calm,-,N/A,,Clear,0,2012-11-19 02:35:00
8:55 PM,40.3,36.5,86,30.36,10.0,Calm,Calm,-,N/A,,Clear,0,2012-11-19 02:55:00
9:15 PM,38.3,36.0,91,30.35,10.0,Calm,Calm,-,N/A,,Clear,0,2012-11-19 03:15:00
9:35 PM,37.6,35.4,92,30.35,10.0,Calm,Calm,-,N/A,,Clear,0,2012-11-19 03:35:00
9:55 PM,40.1,38.1,93,30.35,10.0,Calm,Calm,-,N/A,,Clear,0,2012-11-19 03:55:00
10:15 PM,43.9,37.8,79,30.35,10.0,Calm,Calm,-,N/A,,Clear,0,2012-11-19 04:15:00
10:35 PM,42.6,38.7,86,30.35,10.0,Calm,Calm,-,N/A,,Clear,0,2012-11-19 04:35:00
10:55 PM,41.0,37.4,87,30.35,10.0,Calm,Calm,-,N/A,,Clear,0,2012-11-19 04:55:00
11:15 PM,36.1,34.5,94,30.35,10.0,Calm,Calm,-,N/A,,Clear,0,2012-11-19 05:15:00
11:35 PM,37.0,36.5,98,30.34,7.0,Calm,Calm,-,N/A,,Clear,0,2012-11-19 05:35:00
11:55 PM,37.4,36.9,98,30.35,7.0,Calm,Calm,-,N/A,,Clear,0,2012-11-19 05:55:00